This is the latest recevied weather packets stored in our database for station/object DF9PM-13. If no packets are shown the sender has not sent any weather packets the latest 10 day(s).
| Time | Temp. | Humidity | Pressure | Rain* | Wind** | Luminosity | Snow |
|---|---|---|---|---|---|---|---|
| 1777837825 | 17.78° C | 55% | 1014 hPa | - | - | - | - |
| 1777837525 | 17.78° C | 51% | 1013.9 hPa | - | - | - | - |
| 1777837225 | 17.78° C | 49% | 1013.8 hPa | - | - | - | - |
| 1777836925 | 17.78° C | 46% | 1013.9 hPa | - | - | - | - |
| 1777836625 | 18.33° C | 44% | 1013.7 hPa | - | - | - | - |
| 1777836325 | 18.89° C | 43% | 1013.7 hPa | - | - | - | - |
| 1777836024 | 18.89° C | 41% | 1013.6 hPa | - | - | - | - |
| 1777835725 | 18.89° C | 41% | 1013.4 hPa | - | - | - | - |
| 1777835424 | 18.89° C | 42% | 1013.3 hPa | - | - | - | - |
| 1777835124 | 19.44° C | 41% | 1013.3 hPa | - | - | - | - |
| 1777834824 | 19.44° C | 41% | 1013.2 hPa | - | - | - | - |
| 1777834525 | 19.44° C | 41% | 1013.1 hPa | - | - | - | - |
| 1777834224 | 19.44° C | 40% | 1013 hPa | - | - | - | - |
| 1777833925 | 19.44° C | 41% | 1013 hPa | - | - | - | - |
| 1777833624 | 20° C | 43% | 1012.9 hPa | - | - | - | - |
| 1777833325 | 20° C | 42% | 1012.8 hPa | - | - | - | - |
| 1777833024 | 20° C | 42% | 1012.8 hPa | - | - | - | - |
| 1777832724 | 20° C | 41% | 1012.9 hPa | - | - | - | - |
| 1777832424 | 20.56° C | 41% | 1012.8 hPa | - | - | - | - |
| 1777832124 | 20.56° C | 41% | 1012.7 hPa | - | - | - | - |
| 1777831824 | 21.11° C | 40% | 1012.6 hPa | - | - | - | - |
| 1777831524 | 21.11° C | 39% | 1012.6 hPa | - | - | - | - |
| 1777831224 | 21.11° C | 39% | 1012.4 hPa | - | - | - | - |
| 1777830924 | 21.11° C | 38% | 1012.4 hPa | - | - | - | - |
| 1777830623 | 21.11° C | 37% | 1012.3 hPa | - | - | - | - |
* Rain since midnight (hover to see other rain measurements)
** Current wind speed in m/s (hover to see current wind gust speed)